Starlink 4526

operational
NORAD ID: 53438 Int'l Des: 2022-097 Owner: SPXS Country: US Constellation: starlink
LEOCIRCULAR

About Starlink 4526

Description loading...

Live Position

Loading 3D Globe...

Upcoming Passes

Altitude History

Altitude vs Time

uPlot chart will show altitude changes over time

Two-Line Element Set

1 53438U 22097BC 25257.19175285 .00000158 00000-0 28057-4 0 9992
2 53438 53.2168 176.0950 0001742 92.3135 267.8056 15.08841079172158
Epoch: Sep 14, 2025 • Age: 29 hours

Current Status

Altitude 542.4 km
Velocity 7.59 km/s
Sub-Earth Point -9.36°S, 147.94°W
Launch Date Aug 10, 2022
Age 3 years
Type internet

Technical Details

Classification Payload
Mass 297.00 kg
Dry Mass 275.00 kg
Total Mass 297.00 kg
Length 0.20 m
Diameter 2.80 m
Span 9.00 m
Shape Box + pan
Manufacturer SPXS
Bus Type Starlink
Phase Status In Orbit
Owner/State SPXS/US

Large Constellations

Loading constellations...